TimeGMT,TemperatureF,Dew PointF,Humidity,Sea Level PressureIn,VisibilityMPH,Wind Direction,Wind SpeedMPH,Gust SpeedMPH,PrecipitationIn,Events,Conditions,WindDirDegrees,DateUTC
12:20 AM,39.2,37.4,93,30.12,-9999.0,SSW,3.5,-,N/A,,Clear,200,2012-11-12 00:20:00
12:50 AM,39.2,37.4,93,30.12,-9999.0,SSW,3.5,-,N/A,,Clear,210,2012-11-12 00:50:00
1:20 AM,39.2,37.4,93,30.12,-9999.0,SSW,5.8,-,N/A,,Clear,210,2012-11-12 01:20:00
1:50 AM,39.2,37.4,93,30.12,6.2,SW,5.8,-,N/A,,Unknown,220,2012-11-12 01:50:00
2:20 AM,39.2,37.4,93,30.12,6.2,SW,5.8,-,N/A,,Unknown,220,2012-11-12 02:20:00
2:50 AM,40,38,90,30.14,8,SE,3.5,,,,Overcast,140,2012-11-12 02:50:00
2:50 AM,39.2,37.4,93,30.12,6.2,SSE,3.5,-,N/A,,Unknown,150,2012-11-12 02:50:00
3:20 AM,39.2,37.4,93,30.12,5.0,Variable,3.5,-,N/A,,Unknown,0,2012-11-12 03:20:00
3:50 AM,39.2,39.2,100,30.12,-9999.0,SSE,3.5,-,N/A,,Clear,150,2012-11-12 03:50:00
4:20 AM,41.0,39.2,93,30.12,-9999.0,SE,3.5,-,N/A,,Clear,140,2012-11-12 04:20:00
4:50 AM,39.2,37.4,93,30.12,-9999.0,SSE,2.3,-,N/A,,Clear,150,2012-11-12 04:50:00
5:20 AM,41.0,39.2,93,30.12,-9999.0,SE,3.5,-,N/A,,Clear,140,2012-11-12 05:20:00
5:50 AM,41,39,91,30.14,11,SE,3.5,,,,,130,2012-11-12 05:50:00
5:50 AM,39.2,37.4,93,30.12,-9999.0,SE,3.5,-,N/A,,Clear,140,2012-11-12 05:50:00
6:20 AM,41.0,39.2,93,30.15,-9999.0,SSE,5.8,-,N/A,,Clear,160,2012-11-12 06:20:00
6:50 AM,41.0,39.2,93,30.15,-9999.0,South,5.8,-,N/A,,Clear,180,2012-11-12 06:50:00
7:20 AM,41.0,39.2,93,30.15,-9999.0,South,5.8,-,N/A,,Clear,170,2012-11-12 07:20:00
7:50 AM,42.8,39.2,87,30.15,-9999.0,South,6.9,-,N/A,,Clear,180,2012-11-12 07:50:00
8:20 AM,42.8,41.0,93,30.15,-9999.0,South,6.9,-,N/A,,Clear,180,2012-11-12 08:20:00
8:50 AM,45,42,83,30.16,13,South,6.9,,,,Overcast,180,2012-11-12 08:50:00
8:50 AM,44.6,41.0,87,30.15,6.2,South,5.8,-,N/A,,Partly Cloudy,190,2012-11-12 08:50:00
9:20 AM,44.6,42.8,93,30.15,6.2,South,6.9,-,N/A,,Scattered Clouds,190,2012-11-12 09:20:00
9:50 AM,46.4,42.8,87,30.15,5.6,South,8.1,-,N/A,,Mostly Cloudy,190,2012-11-12 09:50:00
10:20 AM,48.2,44.6,87,30.15,6.2,South,8.1,-,N/A,,Mostly Cloudy,190,2012-11-12 10:20:00
10:50 AM,48.2,44.6,87,30.15,5.0,South,8.1,-,N/A,Rain,Light Rain,180,2012-11-12 10:50:00
11:20 AM,48.2,46.4,93,30.15,6.2,South,8.1,-,N/A,Rain,Light Rain,180,2012-11-12 11:20:00
11:50 AM,50,47,85,30.15,8,South,9.2,,,Rain,Light Rain,190,2012-11-12 11:50:00
11:50 AM,50.0,46.4,87,30.15,6.2,SSW,10.4,-,N/A,Rain,Light Rain,200,2012-11-12 11:50:00
12:20 PM,50.0,46.4,87,30.12,6.2,South,10.4,-,N/A,Rain,Light Rain,190,2012-11-12 12:20:00
12:50 PM,50.0,48.2,94,30.12,6.2,SSW,9.2,-,N/A,Rain,Light Rain,200,2012-11-12 12:50:00
1:20 PM,50.0,48.2,94,30.12,3.7,SSW,10.4,-,N/A,Rain,Light Rain,200,2012-11-12 13:20:00
1:50 PM,50.0,48.2,94,30.12,3.7,SSW,10.4,-,N/A,,Light Drizzle,200,2012-11-12 13:50:00
2:20 PM,50.0,50.0,100,30.12,3.7,SSW,11.5,-,N/A,,Light Drizzle,200,2012-11-12 14:20:00
2:50 PM,52,51,93,30.12,4,South,11.5,,,,Mist,190,2012-11-12 14:50:00
2:50 PM,51.8,50.0,94,30.09,3.7,SSW,11.5,-,N/A,,Light Drizzle,210,2012-11-12 14:50:00
3:20 PM,51.8,50.0,94,30.09,6.2,SSW,11.5,-,N/A,,Mostly Cloudy,210,2012-11-12 15:20:00
3:50 PM,51.8,50.0,94,30.12,3.7,SSW,11.5,-,N/A,,Light Drizzle,210,2012-11-12 15:50:00
4:20 PM,51.8,50.0,94,30.12,4.3,SSW,10.4,-,N/A,,Mostly Cloudy,200,2012-11-12 16:20:00
4:50 PM,51.8,50.0,94,30.12,6.2,SSW,11.5,-,N/A,,Mostly Cloudy,200,2012-11-12 16:50:00
5:20 PM,51.8,51.8,100,30.12,6.2,SW,8.1,-,N/A,,Mostly Cloudy,220,2012-11-12 17:20:00
5:50 PM,53,52,95,30.14,12,SSW,9.2,,,Rain,Drizzle,200,2012-11-12 17:50:00
5:50 PM,51.8,51.8,100,30.12,6.2,SSW,8.1,-,N/A,,Mostly Cloudy,210,2012-11-12 17:50:00
6:20 PM,53.6,51.8,94,30.15,6.2,SW,9.2,-,N/A,,Mostly Cloudy,220,2012-11-12 18:20:00
6:50 PM,53.6,51.8,94,30.15,6.2,SW,8.1,-,N/A,,Mostly Cloudy,220,2012-11-12 18:50:00
7:20 PM,53.6,51.8,94,30.15,6.2,SW,9.2,-,N/A,,Mostly Cloudy,230,2012-11-12 19:20:00
7:50 PM,53.6,53.6,100,30.18,6.2,WSW,8.1,-,N/A,,Scattered Clouds,240,2012-11-12 19:50:00
8:20 PM,53.6,51.8,94,30.18,6.2,SW,6.9,-,N/A,,Partly Cloudy,220,2012-11-12 20:20:00
8:50 PM,54,53,93,30.19,12,SSW,9.2,,,,Overcast,210,2012-11-12 20:50:00
8:50 PM,53.6,51.8,94,30.18,6.2,SSW,8.1,-,N/A,,Partly Cloudy,210,2012-11-12 20:50:00
9:20 PM,53.6,51.8,94,30.18,6.2,SSW,6.9,-,N/A,,Partly Cloudy,210,2012-11-12 21:20:00
9:50 PM,53.6,51.8,94,30.21,6.2,SW,9.2,-,N/A,,Partly Cloudy,220,2012-11-12 21:50:00
10:20 PM,51.8,51.8,100,30.21,5.6,SW,8.1,-,N/A,,Scattered Clouds,220,2012-11-12 22:20:00
10:50 PM,51.8,51.8,100,30.21,6.2,SSW,6.9,-,N/A,,Partly Cloudy,210,2012-11-12 22:50:00
11:20 PM,51.8,51.8,100,30.21,5.6,SSW,6.9,-,N/A,,Partly Cloudy,210,2012-11-12 23:20:00
11:50 PM,53,51,92,30.23,10,SW,9.2,,,,Overcast,220,2012-11-12 23:50:00
11:50 PM,51.8,51.8,100,30.21,5.6,SW,8.1,-,N/A,,Partly Cloudy,220,2012-11-12 23:50:00